Location: ???????
(56.2167°N, 38.0500°E)
Time: 09:32:02
(UTC+00:00)

ARIANE 6 FM1 Upper Stage - Pass Details

Date: 19 May 2025
Orbit: 531 x 610 km, 62.0° (Epoch: 12 June)

Event Time Altitude Azimuth Distance (km) Brightness Sun altitude
Rises 18:43:25 0° 217° (SW) 2,666 6.0 -6.6°
Reaches altitude 10° 18:45:38 10° 212° (SSW) 1,781 5.0 -6.8°
Maximum altitude 18:49:30 49° 137° (SE) 694 2.7 -7.1°
Drops below altitude 10° 18:53:25 10° 62° (ENE) 1,810 5.2 -7.5°
Sets 18:55:42 0° 57° (ENE) 2,716 6.1 -7.6°
